TimeEST,TemperatureF,Dew PointF,Humidity,Sea Level PressureIn,VisibilityMPH,Wind Direction,Wind SpeedMPH,Gust SpeedMPH,PrecipitationIn,Events,Conditions,WindDirDegrees,DateUTC
12:15 AM,10.4,-2.2,57,30.15,10.0,WSW,13.8,18.4,N/A,,Clear,250,2014-01-30 05:15:00
12:35 AM,10.4,-2.2,57,30.17,10.0,West,10.4,-,N/A,,Clear,260,2014-01-30 05:35:00
12:55 AM,10.4,-2.2,57,30.17,10.0,SW,9.2,17.3,N/A,,Clear,230,2014-01-30 05:55:00
1:15 AM,10.4,-0.4,62,30.17,10.0,WSW,9.2,16.1,N/A,,Clear,240,2014-01-30 06:15:00
1:35 AM,10.4,-0.4,62,30.18,10.0,West,3.5,-,N/A,,Clear,260,2014-01-30 06:35:00
1:55 AM,10.4,-0.4,62,30.18,10.0,WSW,10.4,-,N/A,,Clear,240,2014-01-30 06:55:00
2:15 AM,10.4,-0.4,62,30.19,10.0,SW,8.1,-,N/A,,Clear,230,2014-01-30 07:15:00
2:35 AM,10.4,-0.4,62,30.20,10.0,SW,11.5,-,N/A,,Clear,220,2014-01-30 07:35:00
2:55 AM,10.4,-0.4,62,30.21,10.0,SW,11.5,-,N/A,,Clear,220,2014-01-30 07:55:00
3:15 AM,10.4,-0.4,62,30.20,10.0,SW,11.5,18.4,N/A,,Clear,220,2014-01-30 08:15:00
3:35 AM,8.6,-0.4,67,30.22,10.0,SSW,8.1,-,N/A,,Clear,210,2014-01-30 08:35:00
3:55 AM,8.6,-0.4,67,30.23,10.0,South,5.8,-,N/A,,Clear,180,2014-01-30 08:55:00
4:15 AM,6.8,1.4,79,30.24,10.0,Calm,Calm,-,N/A,,Clear,0,2014-01-30 09:15:00
4:35 AM,5.0,-0.4,78,30.24,10.0,SSE,5.8,-,N/A,,Clear,150,2014-01-30 09:35:00
4:55 AM,6.8,1.4,79,30.24,10.0,East,4.6,-,N/A,,Clear,90,2014-01-30 09:55:00
5:15 AM,6.8,1.4,79,30.26,10.0,South,3.5,-,N/A,,Partly Cloudy,190,2014-01-30 10:15:00
5:35 AM,5.0,-0.4,78,30.25,10.0,Calm,Calm,-,N/A,,Partly Cloudy,0,2014-01-30 10:35:00
5:55 AM,3.2,-2.2,78,30.26,10.0,SE,4.6,-,N/A,,Clear,130,2014-01-30 10:55:00
6:15 AM,5.0,-2.2,72,30.27,10.0,SE,5.8,-,N/A,,Clear,130,2014-01-30 11:15:00
6:35 AM,5.0,1.4,85,30.28,10.0,Calm,Calm,-,N/A,,Clear,0,2014-01-30 11:35:00
6:55 AM,1.4,1.4,100,30.28,10.0,SE,3.5,-,N/A,,Clear,140,2014-01-30 11:55:00
7:15 AM,3.2,3.2,100,30.29,10.0,Calm,Calm,-,N/A,,Clear,0,2014-01-30 12:15:00
7:35 AM,3.2,3.2,100,30.30,10.0,ESE,5.8,-,N/A,,Clear,120,2014-01-30 12:35:00
7:55 AM,5.0,5.0,100,30.32,10.0,SE,3.5,-,N/A,,Clear,140,2014-01-30 12:55:00
8:15 AM,8.6,6.8,92,30.33,10.0,Calm,Calm,-,N/A,,Clear,0,2014-01-30 13:15:00
8:35 AM,8.6,6.8,92,30.33,10.0,Calm,Calm,-,N/A,,Clear,0,2014-01-30 13:35:00
8:55 AM,10.4,3.2,73,30.33,10.0,Calm,Calm,-,N/A,,Clear,0,2014-01-30 13:55:00
9:15 AM,12.2,3.2,67,30.34,10.0,ESE,3.5,-,N/A,,Clear,110,2014-01-30 14:15:00
9:35 AM,14.0,5.0,67,30.34,10.0,Calm,Calm,-,N/A,,Clear,0,2014-01-30 14:35:00
9:55 AM,15.8,3.2,58,30.34,10.0,Calm,Calm,-,N/A,,Clear,0,2014-01-30 14:55:00
10:15 AM,15.8,3.2,58,30.34,10.0,Calm,Calm,-,N/A,,Clear,0,2014-01-30 15:15:00
10:35 AM,17.6,3.2,53,30.34,10.0,Calm,Calm,-,N/A,,Clear,0,2014-01-30 15:35:00
10:55 AM,17.6,3.2,53,30.33,10.0,West,4.6,-,N/A,,Clear,260,2014-01-30 15:55:00
11:15 AM,17.6,5.0,58,30.32,10.0,SW,5.8,-,N/A,,Clear,230,2014-01-30 16:15:00
11:35 AM,17.6,5.0,58,30.32,10.0,Calm,Calm,-,N/A,,Clear,0,2014-01-30 16:35:00
11:55 AM,19.4,3.2,49,30.31,10.0,WNW,4.6,-,N/A,,Clear,290,2014-01-30 16:55:00
12:15 PM,19.4,3.2,49,30.30,10.0,West,4.6,-,N/A,,Clear,260,2014-01-30 17:15:00
12:35 PM,19.4,3.2,49,30.28,10.0,West,4.6,-,N/A,,Clear,280,2014-01-30 17:35:00
12:55 PM,21.2,3.2,46,30.28,10.0,SE,3.5,-,N/A,,Clear,140,2014-01-30 17:55:00
1:15 PM,21.2,3.2,46,30.27,10.0,WSW,5.8,-,N/A,,Clear,250,2014-01-30 18:15:00
1:35 PM,21.2,1.4,42,30.26,10.0,SW,5.8,-,N/A,,Clear,220,2014-01-30 18:35:00
1:55 PM,21.2,3.2,46,30.24,10.0,SSE,3.5,-,N/A,,Clear,150,2014-01-30 18:55:00
2:15 PM,23.0,1.4,39,30.23,10.0,SSW,4.6,-,N/A,,Clear,200,2014-01-30 19:15:00
2:35 PM,23.0,1.4,39,30.23,10.0,SSW,5.8,-,N/A,,Clear,200,2014-01-30 19:35:00
2:55 PM,24.8,1.4,36,30.22,10.0,SSW,9.2,-,N/A,,Clear,210,2014-01-30 19:55:00
3:15 PM,24.8,1.4,36,30.22,10.0,SSW,6.9,-,N/A,,Clear,210,2014-01-30 20:15:00
3:35 PM,24.8,1.4,36,30.21,10.0,SSW,6.9,-,N/A,,Clear,200,2014-01-30 20:35:00
3:55 PM,24.8,3.2,40,30.20,10.0,South,4.6,-,N/A,,Clear,190,2014-01-30 20:55:00
4:15 PM,24.8,1.4,36,30.19,10.0,South,5.8,-,N/A,,Clear,190,2014-01-30 21:15:00
4:35 PM,24.8,1.4,36,30.18,10.0,South,4.6,-,N/A,,Clear,170,2014-01-30 21:35:00
4:55 PM,24.8,-2.2,31,30.17,10.0,SSW,5.8,-,N/A,,Clear,200,2014-01-30 21:55:00
5:15 PM,24.8,-0.4,34,30.18,10.0,SSW,4.6,-,N/A,,Clear,200,2014-01-30 22:15:00
5:35 PM,21.2,3.2,46,30.18,10.0,SSE,3.5,-,N/A,,Clear,150,2014-01-30 22:35:00
5:55 PM,19.4,3.2,49,30.18,10.0,ESE,3.5,-,N/A,,Clear,120,2014-01-30 22:55:00
6:15 PM,17.6,3.2,53,30.16,10.0,SE,9.2,-,N/A,,Clear,130,2014-01-30 23:15:00
6:35 PM,17.6,5.0,58,30.14,10.0,SSE,4.6,-,N/A,,Clear,150,2014-01-30 23:35:00
6:55 PM,19.4,1.4,46,30.14,10.0,SE,8.1,-,N/A,,Clear,130,2014-01-30 23:55:00
7:15 PM,19.4,3.2,49,30.14,10.0,SE,11.5,-,N/A,,Clear,130,2014-01-31 00:15:00
7:35 PM,19.4,1.4,46,30.14,10.0,SE,10.4,-,N/A,,Clear,140,2014-01-31 00:35:00
7:55 PM,19.4,3.2,49,30.12,10.0,ESE,11.5,-,N/A,,Clear,120,2014-01-31 00:55:00
8:15 PM,19.4,3.2,49,30.11,10.0,SE,10.4,17.3,N/A,,Clear,130,2014-01-31 01:15:00
8:35 PM,19.4,1.4,46,30.11,10.0,SE,10.4,-,N/A,,Clear,130,2014-01-31 01:35:00
8:55 PM,19.4,3.2,49,30.11,10.0,ESE,10.4,-,N/A,,Clear,120,2014-01-31 01:55:00
9:15 PM,19.4,3.2,49,30.10,10.0,SE,11.5,-,N/A,,Clear,130,2014-01-31 02:15:00
9:35 PM,19.4,1.4,46,30.09,10.0,SE,15.0,-,N/A,,Clear,130,2014-01-31 02:35:00
9:55 PM,19.4,3.2,49,30.09,10.0,SE,13.8,-,N/A,,Clear,130,2014-01-31 02:55:00
10:15 PM,19.4,3.2,49,30.07,10.0,SE,15.0,-,N/A,,Clear,130,2014-01-31 03:15:00
10:35 PM,19.4,1.4,46,30.06,10.0,SE,12.7,20.7,N/A,,Clear,130,2014-01-31 03:35:00
10:55 PM,19.4,3.2,49,30.04,10.0,ESE,12.7,17.3,N/A,,Clear,120,2014-01-31 03:55:00
11:15 PM,19.4,3.2,49,30.02,10.0,SE,11.5,17.3,N/A,,Clear,140,2014-01-31 04:15:00
11:35 PM,19.4,1.4,46,30.02,10.0,SE,13.8,-,N/A,,Clear,140,2014-01-31 04:35:00
11:55 PM,19.4,1.4,46,29.99,10.0,SE,17.3,-,N/A,,Clear,130,2014-01-31 04:55:00